Effective Sunday, March 17, 2024, the National Weather Service National Data Buoy Center will discontinue its Dial-A-Buoy Interactive Voice Response system. For more information, see Service Change Notice 24-06 (PDF).

Station LAPW1 - 9442396 - La Push, WA Image indicating link to RSS feed of recent meteorological observations for station LAPW1


Conditions at LAPW1 as of
(1:30 pm PST)
2130 GMT on 03/03/2024:
     

Click on the graph icon in the table below to see a time series plot of the last five days of that observation.

5-day plot - Wind Direction Wind Direction (WDIR): W ( 260 deg true )
5-day plot - Wind Speed Wind Speed (WSPD): 8.0 kts
5-day plot - Wind Gust Wind Gust (GST): 13.0 kts
5-day plot - Atmospheric Pressure Atmospheric Pressure (PRES):29.59 in
5-day plot - Air Temperature Air Temperature (ATMP): 43.0 °F
5-day plot - Water Temperature Water Temperature (WTMP): 42.6 °F
5-day plot - Wind Chill Wind Chill (CHILL): 37.8 °F
5-day plot - Wind Speed at 10 Meters Wind Speed at 10 meters (WSPD10M): 7.8 kts
5-day plot - Wind Speed at 20 Meters Wind Speed at 20 meters (WSPD20M): 9.7 kts
5-day plot -  Wind Speed, Wind Gust and Atmospheric Pressure Combined plot of Wind Speed, Gust, and Air Pressure
NOS Water Level Observation Network Water Level
Previous observations
TIME
(PST)
5-day plot - Wind Direction
WDIR
 
5-day plot - Wind Speed
WSPD
kts
5-day plot - Wind Gust
GST
kts
5-day plot - Wave Height
WVHT
ft
5-day plot - Dominant Wave Period
DPD
sec
5-day plot - Average Wave Period
APD
sec
5-day plot - Mean Wave Direction
MWD
 
5-day plot - Atmospheric Pressure
PRES
in
5-day plot - Pressure Tendency
PTDY
in
5-day plot - Air Temperature
ATMP
°F
5-day plot - Water Temperature
WTMP
°F
5-day plot - Dew Point
DEWP
°F
5-day plot - Salinity
SAL
psu
5-day plot - Visibility
VIS
nmi
5-day plot - Tide (above MLLW)
TIDE
ft
2024-03-03 01:24 pmWSW 8.0 12.0----29.59- 42.6 42.4----
2024-03-03 01:18 pmSSW 7.0 12.0----29.58- 42.3 42.4----
2024-03-03 01:12 pm S 6.0 8.9----29.58- 41.9 42.4----
2024-03-03 01:06 pmSSW 6.0 8.9----29.58- 42.1 42.3----
2024-03-03 01:00 pm SW 6.0 8.0----29.58- 42.1 42.3----
2024-03-03 12:54 pmSSW 4.1 8.0----29.58- 40.8 42.3----
2024-03-03 12:48 pmSSW 2.9 6.0----29.58- 39.9 42.3----
2024-03-03 12:42 pm S 2.9 4.1----29.59- 39.6 42.3----
2024-03-03 12:36 pm- 0.0 1.9------- 42.3----
2024-03-03 12:30 pm E 1.9 5.1------- 42.3----
2024-03-03 12:24 pm E 4.1 6.0------- 42.3----
2024-03-03 12:18 pm S 1.0 7.0------- 42.3----
2024-03-03 12:12 pm E 4.1 7.0------- 42.3----
2024-03-03 12:06 pmENE 7.0 9.9------- 42.1----
2024-03-03 12:00 pmENE 6.0 8.0------- 42.1----
2024-03-03 11:54 amENE 4.1 8.9------- 42.1----
2024-03-03 11:48 amESE 2.9 7.0------- 42.1----
2024-03-03 11:42 am NE 5.1 7.0------- 42.1----
2024-03-03 11:36 amESE 6.0 9.9------ 37.9 42.1----
2024-03-03 11:30 amESE 6.0 8.9------ 38.1 42.1----
2024-03-03 11:24 amESE 4.1 11.1------ 37.9 42.1----
2024-03-03 11:18 amESE 8.0 15.0------ 37.9 42.1----
2024-03-03 11:12 amESE 8.0 11.1------ 38.1-----
2024-03-03 11:06 am E 8.0 15.0------ 38.3 42.1----
2024-03-03 11:00 amESE 8.0 15.0------ 38.8 42.1----
2024-03-03 10:54 am SE 6.0 9.9------ 38.8 42.1----
2024-03-03 10:48 am SE 6.0 8.9------ 38.8 42.1----
2024-03-03 10:42 amESE 5.1 12.0------ 38.7 42.3----
2024-03-03 10:36 am SE 6.0 12.0------ 38.5-----
2024-03-03 10:30 am SE 6.0 15.0------ 38.3-----
2024-03-03 10:24 am SE 7.0 15.9------ 37.8-----
2024-03-03 10:18 am SE 6.0 20.0------ 37.8-----
2024-03-03 10:12 am SE 7.0 15.9------ 37.6-----
2024-03-03 10:06 am SE 7.0 11.1------ 37.4-----
2024-03-03 10:00 am SE 7.0 12.0------ 37.6-----
2024-03-03 09:54 am SE 8.0 13.0------ 37.6-----
2024-03-03 09:48 amESE 5.1 11.1------ 37.6-----
2024-03-03 09:42 amESE 5.1 9.9------ 37.4-----
2024-03-03 09:36 amESE 5.1 8.9----29.56- 37.2 42.4----
2024-03-03 09:30 amESE 4.1 7.0----29.55- 36.9 42.4----
2024-03-03 09:24 am E 5.1 9.9----29.55- 36.7 42.6----
2024-03-03 09:18 am E 5.1 11.1----29.56- 36.9 42.6----
2024-03-03 09:12 am E 6.0 13.0----29.55- 37.0 42.6----
2024-03-03 09:06 amESE 8.9 15.9----29.55- 37.2 42.6----
2024-03-03 09:00 amESE 6.0 12.0----29.55+0.04 37.4 42.8----
2024-03-03 08:54 amESE 8.0 15.0----29.55- 37.4 42.8----
2024-03-03 08:48 amESE 5.1 8.9----29.54- 37.2 43.0----
2024-03-03 08:42 am SE 5.1 8.0----29.54- 37.4 43.2----
2024-03-03 08:36 amESE 5.1 8.0----29.54-- 43.3----
2024-03-03 08:30 amESE 4.1 8.9----29.54-- 43.5----
2024-03-03 08:24 am E 4.1 7.0----29.54-- 43.7----
2024-03-03 08:18 amESE 5.1 11.1----29.54-- 43.9----
2024-03-03 08:12 am E 7.0 12.0----29.54-- 44.1----
2024-03-03 08:06 amESE 2.9 8.9----29.53-- 44.2----
2024-03-03 08:00 amESE 5.1 8.9----29.53+0.03- 44.4----
2024-03-03 07:54 amESE 6.0 11.1----29.53-- 44.6----
2024-03-03 07:48 am E 5.1 11.1----29.53-- 45.0----
2024-03-03 07:42 am E 6.0 9.9----29.52-- 45.0----
2024-03-03 07:36 amESE 4.1 9.9----29.52- 36.5 45.3----
2024-03-03 07:30 amESE 5.1 11.1----29.52- 36.3 45.5----
2024-03-03 07:24 am E 5.1 8.9----29.52- 36.1 45.7----
2024-03-03 07:18 amESE 6.0 9.9----29.53- 36.1 46.0----
2024-03-03 07:12 amESE 5.1 8.0----29.53- 36.0 46.4----
2024-03-03 07:06 amESE 5.1 8.0----29.52- 36.0 46.8----
2024-03-03 07:00 am E 5.1 8.0----29.52+0.02 35.8 47.1----
2024-03-03 06:54 am E 5.1 8.0----29.52- 36.0 47.7----
2024-03-03 06:48 am E 4.1 6.0----29.52- 35.8 47.7----
2024-03-03 06:42 amENE 5.1 7.0----29.52- 35.8 47.8----
2024-03-03 06:36 am E 5.1 7.0----29.52- 35.8 48.0----
2024-03-03 06:30 amENE 2.9 7.0----29.52- 35.8 48.4----
2024-03-03 06:24 amENE 4.1 7.0----29.52- 35.8 48.6----
2024-03-03 06:18 am E 4.1 7.0----29.52- 35.8 48.6----
2024-03-03 06:12 amESE 4.1 7.0----29.52- 35.8 48.7----
2024-03-03 06:06 am E 4.1 8.0----29.51- 35.8 48.7----
2024-03-03 06:00 am E 4.1 8.0----29.51+0.03 35.8 48.7----
2024-03-03 05:54 amESE 4.1 8.9----29.51- 36.0 48.7----
2024-03-03 05:48 am E 6.0 8.0----29.51- 36.0 48.7----
2024-03-03 05:42 amESE 6.0 9.9----29.51- 36.0 48.7----
2024-03-03 05:36 am E 6.0 11.1----29.51- 35.8 48.7----
2024-03-03 05:30 am E 5.1 7.0----29.51- 35.8 48.7----
2024-03-03 05:24 am E 2.9 8.0----29.51- 35.6 48.7----
2024-03-03 05:18 am E 4.1 7.0----29.51- 35.6 48.7----
2024-03-03 05:12 am E 5.1 8.0----29.51- 35.6 48.9----
2024-03-03 05:06 am E 4.1 8.0----29.51- 35.6 48.9----
2024-03-03 05:00 am E 2.9 7.0----29.50+0.01 35.6 48.9----
2024-03-03 04:54 am E 5.1 9.9----29.50- 35.6 48.9----
2024-03-03 04:48 amESE 5.1 9.9----29.50- 35.6 48.9----
2024-03-03 04:42 am E 5.1 8.9----29.50- 35.6 48.9----
2024-03-03 04:36 am E 5.1 8.9----29.50- 35.6-----
2024-03-03 04:30 amESE 5.1 9.9----29.51- 35.8-----
2024-03-03 04:24 amESE 6.0 8.9----29.51- 35.8-----
2024-03-03 04:18 amESE 6.0 9.9----29.50- 36.0-----
2024-03-03 04:12 amESE 5.1 8.9----29.50- 36.0-----
2024-03-03 04:06 am E 5.1 11.1----29.50- 36.1-----
2024-03-03 04:00 amESE 5.1 8.9----29.50+0.02 36.1-----
2024-03-03 03:54 amESE 4.1 8.9----29.50- 36.1-----
2024-03-03 03:48 amESE 5.1 8.9----29.50- 36.1-----
2024-03-03 03:42 am E 8.0 11.1----29.50- 36.0-----
2024-03-03 03:36 am E 5.1 9.9----29.49- 36.0 48.9----
2024-03-03 03:30 amESE 5.1 11.1----29.49- 36.0 48.9----
2024-03-03 03:24 amESE 5.1 8.9----29.49- 36.0 48.9----
2024-03-03 03:18 amESE 4.1 8.0----29.49- 36.0 48.9----
2024-03-03 03:12 am E 6.0 11.1----29.49- 36.0 48.9----
2024-03-03 03:06 am E 5.1 9.9----29.49- 36.0 48.9----
2024-03-03 03:00 am E 6.0 12.0----29.49+0.00 36.1 48.9----
2024-03-03 02:54 amESE 4.1 12.0----29.49- 36.1 48.9----
2024-03-03 02:48 amESE 5.1 13.0----29.49- 36.3 48.9----
2024-03-03 02:42 am SE 7.0 15.0----29.49- 36.5 48.9----
2024-03-03 02:36 amESE 6.0 13.0------ 36.5-----
2024-03-03 02:30 amESE 7.0 13.0----29.49- 36.5 48.9----
2024-03-03 02:24 amESE 6.0 9.9----29.49- 36.5 48.9----
2024-03-03 02:18 amESE 7.0 13.0----29.49- 36.3 48.9----
2024-03-03 02:12 amESE 8.0 12.0----29.49- 36.1 48.9----
2024-03-03 02:06 amESE 7.0 13.0----29.49- 36.1 48.9----
2024-03-03 02:00 amESE 6.0 14.0----29.49+0.02 36.0 48.9----
2024-03-03 01:54 amESE 6.0 8.9----29.49- 36.0 48.7----
2024-03-03 01:48 amESE 7.0 13.0----29.49- 36.0 48.7----
2024-03-03 01:42 amESE 4.1 15.0----29.49- 36.0 48.7----
2024-03-03 01:36 am E 8.0 14.0----29.49- 35.8 48.7----
2024-03-03 01:30 amESE 7.0 13.0----29.49- 35.6 48.7----
2024-03-03 01:24 am E 5.1 9.9----29.49- 35.4 48.7----
2024-03-03 01:18 amESE 7.0 12.0----29.48- 35.2 48.7----
2024-03-03 01:12 am E 4.1 9.9----29.48- 34.9 48.6----
2024-03-03 01:06 am E 6.0 8.9----29.48- 34.7 48.6----
2024-03-03 01:00 am E 5.1 8.9----29.48+0.02 34.7 48.4----
2024-03-03 12:54 am E 7.0 13.0----29.48- 34.7 48.2----
2024-03-03 12:48 am E 4.1 11.1----29.48- 34.5 48.0----
2024-03-03 12:42 amESE 5.1 9.9----29.48- 34.7 47.7----
2024-03-03 12:36 am E 5.1 7.0----29.48- 34.5 47.3----
2024-03-03 12:30 am E 1.9 8.0----29.48- 34.5 46.9----
2024-03-03 12:24 amESE 4.1 8.9----29.48- 34.3 46.6----
2024-03-03 12:18 amESE 5.1 8.9----29.48- 34.3 45.9----
2024-03-03 12:12 am E 7.0 11.1----29.48- 34.3 45.1----
2024-03-03 12:06 amENE 6.0 11.1----29.48- 34.0 44.2----
2024-03-03 12:00 amESE 5.1 11.1----29.48+0.02 34.0 43.7----
2024-03-02 11:54 pm E 7.0 11.1----29.48- 34.2 43.5----
2024-03-02 11:48 pmESE 7.0 9.9----29.49- 34.7 43.3----
2024-03-02 11:42 pm E 5.1 14.0----29.48- 34.9 43.2----
2024-03-02 11:36 pm E 4.1 12.0----29.48- 35.4 43.0----
2024-03-02 11:30 pmESE 5.1 9.9----29.48- 35.6 43.0----
2024-03-02 11:24 pmESE 5.1 13.0----29.48- 35.4 43.0----
2024-03-02 11:18 pm E 5.1 12.0----29.48- 35.4 43.0----
2024-03-02 11:12 pm E 8.0 15.0----29.47- 35.2 42.8----
2024-03-02 11:06 pmESE 8.0 12.0----29.47- 35.2 42.8----
2024-03-02 11:00 pm E 8.9 15.0----29.47+0.01 35.2 42.8----
2024-03-02 10:54 pm E 5.1 9.9----29.47- 35.1 42.8----
2024-03-02 10:48 pm E 8.9 13.0----29.47- 35.1 42.8----
2024-03-02 10:42 pm E 5.1 8.9----29.47- 34.9 42.8----
2024-03-02 10:36 pm E 5.1 11.1----29.47- 34.5 42.8----
2024-03-02 10:30 pm E 4.1 7.0----29.47- 34.5 42.8----
2024-03-02 10:24 pm E 5.1 9.9----29.47- 34.7 42.8----
2024-03-02 10:18 pmESE 6.0 14.0----29.47- 34.9 42.8----
2024-03-02 10:12 pmESE 6.0 13.0----29.47- 35.2 42.8----
2024-03-02 10:06 pm E 5.1 8.9----29.47- 35.1 42.8----
2024-03-02 10:00 pm E 4.1 8.9----29.47+0.00 35.1 42.8----
2024-03-02 09:54 pm E 5.1 8.0----29.47- 34.9 42.8----
2024-03-02 09:48 pm E 5.1 11.1----29.47- 35.1 42.8----
2024-03-02 09:42 pmESE 8.9 15.0----29.47- 35.2 42.8----
2024-03-02 09:36 pm SE 7.0 13.0----29.47- 35.6 42.8----
2024-03-02 09:30 pm SE 5.1 13.0----29.47- 35.6 42.8----
2024-03-02 09:24 pmESE 5.1 9.9----29.47- 35.6 42.8----
2024-03-02 09:18 pm SE 6.0 13.0----29.47- 35.6 42.8----
2024-03-02 09:12 pmESE 5.1 11.1----29.47- 35.4 42.8----
2024-03-02 09:06 pmESE 5.1 12.0----29.46- 35.2 42.8----
2024-03-02 09:00 pmESE 5.1 11.1----29.46+0.00 35.1 42.8----
2024-03-02 08:54 pmESE 5.1 14.0----29.46- 35.2 42.8----
2024-03-02 08:48 pmESE 6.0 15.0----29.46- 35.8 42.8----
2024-03-02 08:42 pm SE 9.9 14.0----29.46- 36.0 43.0----
2024-03-02 08:36 pm E 8.0 15.9----29.46- 35.8 42.8----
2024-03-02 08:30 pm E 6.0 11.1----29.46- 35.4 43.0----
2024-03-02 08:24 pmESE 6.0 9.9----29.46- 35.4 43.0----
2024-03-02 08:18 pm E 4.1 7.0----29.46- 35.4 43.0----
2024-03-02 08:12 pm E 5.1 9.9----29.46- 35.6 43.0----
2024-03-02 08:06 pmESE 5.1 8.0----29.46- 35.8 43.0----
2024-03-02 08:00 pmESE 6.0 11.1----29.46- 36.0 43.0----
2024-03-02 07:54 pmESE 7.0 15.0----29.46- 36.1 43.0----
2024-03-02 07:48 pm SE 6.0 14.0----29.46- 36.1 43.0----
2024-03-02 07:42 pmESE 6.0 13.0----29.46- 36.3 43.0----
2024-03-02 07:36 pmESE 4.1 9.9----29.46- 36.1 43.0----
2024-03-02 07:30 pm E 5.1 8.0----29.46- 35.8 43.2----
2024-03-02 07:24 pm E 2.9 6.0----29.46- 35.8 43.2----
2024-03-02 07:18 pm E 5.1 8.0----29.46- 35.8 43.2----
2024-03-02 07:12 pmENE 5.1 6.0----29.47- 35.1 43.3----
2024-03-02 07:06 pm NE 2.9 4.1----29.47- 34.7 43.3----
2024-03-02 07:00 pm S 1.9 4.1----29.47+0.03 35.6 43.5----
2024-03-02 06:54 pmNNE 2.9 6.0----29.47- 35.6 43.5----
2024-03-02 06:48 pmSSW 6.0 8.9----29.46- 36.1 43.5----
2024-03-02 06:42 pmNNW 4.1 6.0----29.45- 36.0 43.5----
2024-03-02 06:36 pmENE 2.9 7.0----29.45- 36.3 43.5----
2024-03-02 06:30 pmENE 2.9 7.0----29.45- 36.5 43.5----
2024-03-02 06:24 pmENE 4.1 7.0----29.45- 36.5 43.7----
2024-03-02 06:18 pm NE 5.1 7.0----29.46- 36.5 44.1----
2024-03-02 06:12 pmENE 5.1 8.9----29.46- 36.9 44.4----
2024-03-02 06:06 pmESE 4.1 9.9----29.46- 37.2 44.8----
2024-03-02 06:00 pmESE 7.0 14.0----29.46+0.02 37.6 45.1----
2024-03-02 05:54 pm SE 9.9 21.0----29.46- 37.4 46.2----
2024-03-02 05:48 pm S 11.1 18.1----29.46- 37.6 46.4----
2024-03-02 05:42 pm E 2.9 8.0----29.44- 38.5 46.4----
2024-03-02 05:36 pm E 4.1 7.0----29.44- 38.7 46.2----
2024-03-02 05:30 pm E 4.1 7.0----29.45- 39.0 46.6----
2024-03-02 05:24 pm E 4.1 8.0----29.45- 39.4 46.9----
2024-03-02 05:18 pm E 5.1 9.9----29.45- 39.7 47.3----
2024-03-02 05:12 pmESE 4.1 8.9----29.44- 40.1 47.3----
2024-03-02 05:06 pm SE 6.0 12.0----29.44- 40.1 47.3----
2024-03-02 05:00 pm SE 9.9 15.9------ 40.3-----
2024-03-02 04:54 pm SE 9.9 13.0----29.45- 40.5 46.9----
2024-03-02 04:48 pmSSE 9.9 15.9----29.45- 40.8 47.1----
2024-03-02 04:42 pm SE 8.9 15.9----29.44- 41.0 47.1----
2024-03-02 04:36 pmSSE 9.9 15.0----29.44- 41.0 46.9----
2024-03-02 04:30 pm SE 8.9 15.0----29.44- 41.4 46.9----
2024-03-02 04:24 pmSSE 7.0 18.1----29.44- 41.5 46.9----
2024-03-02 04:18 pm S 12.0 18.1----29.44- 41.9 46.8----
2024-03-02 04:12 pmSSE 11.1 18.1----29.44- 42.3 46.8----
2024-03-02 04:06 pmSSE 13.0 22.0----29.44- 42.3 46.8----
2024-03-02 04:00 pm S 17.1 22.0----29.44- 42.4 46.6----
2024-03-02 03:54 pm S 12.0 20.0----29.44- 43.0 46.6----
2024-03-02 03:48 pm S 12.0 17.1----29.44- 42.6 46.4----
2024-03-02 03:42 pm S 2.9 6.0----29.44- 39.4 46.0----
2024-03-02 03:36 pm SE 2.9 5.1----29.44- 39.2 45.3----
2024-03-02 03:30 pmESE 1.9 7.0----29.44- 39.6 44.4----
2024-03-02 03:24 pm SE 6.0 9.9----29.44- 39.9 43.7----
2024-03-02 03:18 pm SE 8.0 12.0----29.44- 40.1 43.3----
2024-03-02 03:12 pmESE 6.0 8.9----29.44- 40.5 43.2----
2024-03-02 03:06 pm SE 8.0 12.0----29.44- 41.0 43.0----
2024-03-02 03:00 pm SE 4.1 9.9----29.44+0.02 41.9 43.0----
2024-03-02 02:54 pmSSE 6.0 9.9----29.43- 42.1 43.0----
2024-03-02 02:48 pmSSE 6.0 8.9----29.43- 41.9 42.8----
2024-03-02 02:42 pm S 7.0 14.0----29.43- 41.4 42.8----
2024-03-02 02:36 pm S 12.0 15.9----29.43- 42.1 42.8----
2024-03-02 02:30 pm S 8.0 11.1----29.43- 41.9 42.8----
2024-03-02 02:24 pmSSE 5.1 11.1----29.42- 41.2 42.8----
2024-03-02 02:18 pmSSE 7.0 22.0----29.42- 40.5 42.8----
2024-03-02 02:12 pmSSW 15.0 22.0----29.41- 41.4 42.8----
2024-03-02 02:06 pm S 11.1 14.0----29.42- 40.3 42.8----
2024-03-02 02:00 pm SW 17.1 24.1----29.41+0.02 39.7 42.8----
2024-03-02 01:54 pmESE 5.1 9.9----29.41- 40.5 42.8----